TimeEST,TemperatureF,Dew PointF,Humidity,Sea Level PressureIn,VisibilityMPH,Wind Direction,Wind SpeedMPH,Gust SpeedMPH,PrecipitationIn,Events,Conditions,WindDirDegrees,DateUTC
12:53 AM,39.2,30.2,70,29.84,10.0,SW,15.0,-,N/A,,Overcast,230,2013-02-28 05:53:00
1:53 AM,37.4,30.2,75,29.84,10.0,WSW,11.5,26.5,N/A,Rain,Light Rain,250,2013-02-28 06:53:00
2:53 AM,37.9,27.0,65,29.84,10.0,West,10.4,-,0.00,,Overcast,260,2013-02-28 07:53:00
3:53 AM,37.9,27.0,65,29.83,10.0,WSW,10.4,-,N/A,,Overcast,240,2013-02-28 08:53:00
4:53 AM,37.0,27.0,67,29.83,10.0,WSW,11.5,-,N/A,,Overcast,240,2013-02-28 09:53:00
5:53 AM,37.0,27.0,67,29.84,10.0,SW,10.4,-,N/A,,Overcast,230,2013-02-28 10:53:00
6:53 AM,37.0,28.9,73,29.85,6.0,WSW,12.7,-,0.00,Snow,Light Snow,240,2013-02-28 11:53:00
7:53 AM,36.0,28.9,76,29.86,5.0,WSW,10.4,-,0.00,Snow,Light Snow,240,2013-02-28 12:53:00
8:42 AM,35.6,30.2,81,29.88,1.0,West,17.3,23.0,0.00,Snow,Snow,260,2013-02-28 13:42:00
8:49 AM,33.8,28.4,81,29.88,0.8,West,11.5,23.0,0.01,Snow,Snow,270,2013-02-28 13:49:00
8:53 AM,33.1,28.9,85,29.90,1.0,West,11.5,-,0.01,Snow,Snow,270,2013-02-28 13:53:00
9:00 AM,33.8,28.4,81,29.89,1.8,West,9.2,-,0.00,Snow,Light Snow,270,2013-02-28 14:00:00
9:11 AM,33.8,28.4,81,29.89,1.8,West,10.4,-,0.00,Snow,Light Snow,270,2013-02-28 14:11:00
9:24 AM,33.8,28.4,81,29.89,3.0,West,10.4,-,0.00,Snow,Light Snow,270,2013-02-28 14:24:00
9:53 AM,35.1,28.9,78,29.91,7.0,West,9.2,-,0.00,,Overcast,270,2013-02-28 14:53:00
10:23 AM,35.6,28.4,75,29.91,7.0,West,12.7,-,N/A,,Overcast,280,2013-02-28 15:23:00
10:48 AM,37.4,28.4,70,29.91,10.0,West,16.1,25.3,N/A,,Overcast,270,2013-02-28 15:48:00
10:53 AM,37.0,28.0,70,29.91,10.0,WNW,15.0,25.3,N/A,,Overcast,290,2013-02-28 15:53:00
11:53 AM,37.9,26.1,62,29.93,10.0,WNW,11.5,-,N/A,,Overcast,300,2013-02-28 16:53:00
12:53 PM,37.0,24.1,59,29.93,10.0,WNW,13.8,-,N/A,,Overcast,290,2013-02-28 17:53:00
1:53 PM,37.9,23.0,55,29.93,10.0,West,11.5,-,N/A,,Overcast,260,2013-02-28 18:53:00
2:53 PM,37.9,23.0,55,29.94,10.0,West,11.5,-,N/A,,Overcast,260,2013-02-28 19:53:00
3:53 PM,37.9,21.9,53,29.96,10.0,West,8.1,-,N/A,,Overcast,280,2013-02-28 20:53:00
4:53 PM,37.9,23.0,55,29.97,10.0,WSW,11.5,-,N/A,,Overcast,250,2013-02-28 21:53:00
5:53 PM,37.9,23.0,55,29.99,10.0,WNW,11.5,-,N/A,,Overcast,290,2013-02-28 22:53:00
6:53 PM,37.0,24.1,59,30.00,10.0,West,9.2,-,N/A,,Overcast,280,2013-02-28 23:53:00
7:53 PM,37.4,24.8,60,29.98,10.0,West,10.4,-,N/A,,Overcast,260,2013-03-01 00:53:00
8:53 PM,36.0,25.0,64,30.01,10.0,West,10.4,-,N/A,,Overcast,260,2013-03-01 01:53:00
9:42 PM,35.6,26.6,70,29.99,10.0,West,10.4,-,N/A,,Overcast,270,2013-03-01 02:42:00
9:53 PM,36.0,26.1,67,30.01,10.0,West,10.4,-,N/A,,Overcast,260,2013-03-01 02:53:00
10:53 PM,36.0,26.1,67,30.01,10.0,West,8.1,-,N/A,,Overcast,270,2013-03-01 03:53:00
11:53 PM,36.0,27.0,70,30.01,9.0,West,6.9,-,0.00,Snow,Light Snow,260,2013-03-01 04:53:00